Location: Cisewo
(53.3833°N, 14.9000°E)
Time: 12:11:33
(UTC+00:00)

Cosmos 2228 - Pass Details

Date: 18 April 2021
Orbit: 587 x 619 km, 82.5° (Epoch: 14 May)

Event Time Altitude Azimuth Distance (km) Brightness Sun altitude
Rises 18:33:36 0° 189° (S) 2,865 6.3 -4.5°
Reaches altitude 10° 18:35:49 10° 190° (S) 1,961 5.5 -4.8°
Maximum altitude 18:40:10 89° 271° (W) 614 3.1 -5.4°
Drops below altitude 10° 18:44:30 10° 11° (N) 1,957 5.9 -6.0°
Sets 18:46:43 0° 12° (NNE) 2,859 6.7 -6.3°
